Location: Newark
(41.7772°N, 74.7403°W)
Time: 15:38:40
(UTC+00:00)

N. Korean satellite - Pass Details

Date: 09 April 2020
Orbit: 455 x 505 km, 97.2° (Epoch: 30 May)

Event Time Altitude Azimuth Distance (km) Brightness Sun altitude
Rises 09:38:05 0° 35° (NE) 2,481 11.2 -9.7°
Reaches altitude 10° 09:41:23 10° 70° (ENE) 1,599 10.9 -9.2°
Maximum altitude 09:42:36 12° 91° (E) 1,505 10.3 -8.9°
Drops below altitude 10° 09:43:49 10° 112° (ESE) 1,595 10.0 -8.7°
Sets 09:47:05 0° 147° (SSE) 2,465 10.3 -8.2°
